Allentown, PA

8:16 AM EDT on July 29, 2017 (GMT -0400)
Allentown

Weather History for KXLL - November, 2012

Change the Weather History Date:

Wednesday, November 21, 2012

  Actual Average (KABE) Record (KABE)
Temperature  
Mean Temperature 40 °F -  
Max Temperature 51 °F 47 °F 73 °F (1931)
Min Temperature 30 °F 31 °F 17 °F (1951)
Degree Days  
Heating Degree Days 24    
Moisture  
Dew Point 29 °F    
Average Humidity 70    
Maximum Humidity 93    
Minimum Humidity 37    
Precipitation  
Precipitation 0.00 in - - ()
Sea Level Pressure  
Sea Level Pressure 30.21 in    
Wind  
Wind Speed 1 mph (NE)    
Max Wind Speed 7 mph    
Max Gust Speed -    
Visibility 10 miles    
Events      
Averages and records for this station are not official NWS values.
T = Trace of Precipitation, MM = Missing Value Source: NWS Daily Summary

Daily Weather History Graph

Daily Weather History Graph

Search for Another Location

Airport or City:

Trip Planner

Search our weather history database for the weather conditions in past years. The results will help you decide how hot, cold, wet, or windy it might be!

Date:

Astronomy

Nov. 21, 2012 Rise Set
Actual Time 6:55 AM EST 4:39 PM EST
Civil Twilight 6:26 AM EST 5:09 PM EST
Nautical Twilight 5:52 AM EST 5:42 PM EST
Astronomical Twilight 5:20 AM EST 6:15 PM EST
Moon 12:56 PM EST (11/21) 12:10 AM EST (11/21)
Length of Visible Light 10h 43m
Length of Day
9h 43m
First Quarter, 61% of the Moon is Illuminated
Nov 21
First Quarter
Nov 28
Full
Dec 6
Last Quarter
Dec 13
New
Dec 20
First Quarter

Hourly Weather History & Observations

Time (EST) Temp. Windchill Dew Point Humidity Pressure Visibility Wind Dir Wind Speed Gust Speed Precip Events Conditions
12:15 AM 37.4 °F - 32.0 °F 81% 30.16 in 10.0 mi Calm Calm - N/A   Clear
12:35 AM 39.2 °F - 32.0 °F 75% 30.16 in 10.0 mi Calm Calm - N/A   Clear
12:55 AM 37.4 °F - 32.0 °F 81% 30.16 in 10.0 mi Calm Calm - N/A   Clear
1:15 AM 37.4 °F - 32.0 °F 81% 30.16 in 10.0 mi Calm Calm - N/A   Scattered Clouds
1:35 AM 37.4 °F - 32.0 °F 81% 30.16 in 10.0 mi Calm Calm - N/A   Clear
1:55 AM 35.6 °F - 30.2 °F 81% 30.16 in 10.0 mi Calm Calm - N/A   Clear
2:15 AM 35.6 °F 32.8 °F 30.2 °F 81% 30.16 in 10.0 mi NE 3.5 mph - N/A   Clear
2:35 AM 33.8 °F - 30.2 °F 87% 30.16 in 10.0 mi Calm Calm - N/A   Clear
2:55 AM 33.8 °F - 30.2 °F 87% 30.16 in 10.0 mi Calm Calm - N/A   Clear
3:15 AM 33.8 °F 30.8 °F 30.2 °F 87% 30.17 in 10.0 mi SW 3.5 mph - N/A   Clear
3:35 AM 32.0 °F - 30.2 °F 93% 30.17 in 10.0 mi Calm Calm - N/A   Clear
3:55 AM 32.0 °F - 30.2 °F 93% 30.17 in 10.0 mi Calm Calm - N/A   Clear
4:15 AM 32.0 °F - 30.2 °F 93% 30.17 in 10.0 mi Calm Calm - N/A   Clear
4:35 AM 32.0 °F - 30.2 °F 93% 30.18 in 10.0 mi Calm Calm - N/A   Clear
4:55 AM 32.0 °F 28.7 °F 28.4 °F 87% 30.18 in 7.0 mi SW 3.5 mph - N/A   Clear
5:15 AM 32.0 °F - 30.2 °F 93% 30.19 in 10.0 mi Calm Calm - N/A   Clear
5:35 AM 32.0 °F - 28.4 °F 87% 30.20 in 10.0 mi Calm Calm - N/A   Clear
5:55 AM 32.0 °F - 28.4 °F 87% 30.19 in 7.0 mi Calm Calm - N/A   Clear
6:15 AM 32.0 °F - 28.4 °F 87% 30.20 in 10.0 mi Calm Calm - N/A   Clear
6:35 AM 30.2 °F - 28.4 °F 93% 30.21 in 7.0 mi Calm Calm - N/A   Clear
6:55 AM 30.2 °F - 28.4 °F 93% 30.22 in 7.0 mi Calm Calm - N/A   Clear
7:15 AM 30.2 °F - 28.4 °F 93% 30.22 in 7.0 mi Calm Calm - N/A   Clear
7:35 AM 30.2 °F - 28.4 °F 93% 30.22 in 7.0 mi Calm Calm - N/A   Clear
7:55 AM 32.0 °F - 30.2 °F 93% 30.23 in 7.0 mi Calm Calm - N/A   Clear
8:15 AM 33.8 °F - 30.2 °F 87% 30.23 in 7.0 mi Calm Calm - N/A   Clear
8:35 AM 35.6 °F - 30.2 °F 81% 30.23 in 10.0 mi Calm Calm - N/A   Clear
8:55 AM 35.6 °F - 32.0 °F 87% 30.23 in 10.0 mi Calm Calm - N/A   Clear
9:15 AM 39.2 °F 37.0 °F 32.0 °F 75% 30.24 in 10.0 mi NNE 3.5 mph - N/A   Clear
9:35 AM 41.0 °F 39.0 °F 30.2 °F 65% 30.24 in 10.0 mi NE 3.5 mph - N/A   Clear
9:55 AM 41.0 °F - 30.2 °F 65% 30.24 in 10.0 mi Calm Calm - N/A   Clear
10:15 AM 42.8 °F 40.1 °F 30.2 °F 61% 30.24 in 10.0 mi NNE 4.6 mph - N/A   Clear
10:35 AM 42.8 °F - 30.2 °F 61% 30.24 in 10.0 mi Calm Calm - N/A   Clear
10:55 AM 44.6 °F 42.2 °F 30.2 °F 57% 30.23 in 10.0 mi ENE 4.6 mph - N/A   Clear
11:15 AM 46.4 °F 44.3 °F 30.2 °F 53% 30.22 in 10.0 mi NNE 4.6 mph - N/A   Clear
11:35 AM 48.2 °F - 30.2 °F 50% 30.22 in 10.0 mi NE 3.5 mph - N/A   Clear
12:15 PM 50.0 °F - 28.4 °F 43% 30.20 in 10.0 mi ENE 3.5 mph - N/A   Clear
12:35 PM 51.8 °F - 28.4 °F 41% 30.19 in 10.0 mi Calm Calm - N/A   Clear
12:55 PM 51.8 °F - 28.4 °F 41% 30.19 in 10.0 mi NE 6.9 mph - N/A   Clear
1:15 PM 51.8 °F - 26.6 °F 38% 30.19 in 10.0 mi NE 5.8 mph - N/A   Clear
1:35 PM 51.8 °F - 26.6 °F 38% 30.19 in 10.0 mi Calm Calm - N/A   Clear
1:55 PM 51.8 °F - 26.6 °F 38% 30.18 in 10.0 mi ENE 6.9 mph - N/A   Clear
2:15 PM 51.8 °F - 26.6 °F 38% 30.18 in 10.0 mi NE 6.9 mph - N/A   Clear
2:35 PM 51.8 °F - 26.6 °F 38% 30.18 in 10.0 mi North 6.9 mph - N/A   Clear
3:15 PM 51.8 °F - 26.6 °F 38% 30.18 in 10.0 mi NE 5.8 mph - N/A   Clear
3:35 PM 51.8 °F - 26.6 °F 38% 30.19 in 10.0 mi NE 4.6 mph - N/A   Clear
3:55 PM 50.0 °F - 26.6 °F 40% 30.19 in 10.0 mi NE 5.8 mph - N/A   Clear
4:15 PM 50.0 °F - 26.6 °F 40% 30.19 in 10.0 mi NE 3.5 mph - N/A   Clear
4:35 PM 50.0 °F - 24.8 °F 37% 30.19 in 10.0 mi Calm Calm - N/A   Clear
5:15 PM 46.4 °F - 26.6 °F 46% 30.20 in 10.0 mi Calm Calm - N/A   Clear
5:35 PM 44.6 °F - 28.4 °F 53% 30.21 in 10.0 mi Calm Calm - N/A   Clear
5:55 PM 42.8 °F - 28.4 °F 57% 30.21 in 10.0 mi Calm Calm - N/A   Clear
6:15 PM 42.8 °F - 28.4 °F 57% 30.22 in 10.0 mi Calm Calm - N/A   Clear
6:35 PM 41.0 °F - 28.4 °F 61% 30.22 in 10.0 mi Calm Calm - N/A   Clear
6:55 PM 39.2 °F - 28.4 °F 65% 30.23 in 10.0 mi Calm Calm - N/A   Clear
7:15 PM 37.4 °F - 28.4 °F 70% 30.23 in 10.0 mi Calm Calm - N/A   Clear
7:35 PM 37.4 °F - 28.4 °F 70% 30.24 in 10.0 mi Calm Calm - N/A   Clear
7:55 PM 35.6 °F - 28.4 °F 75% 30.24 in 10.0 mi Calm Calm - N/A   Clear
8:15 PM 35.6 °F - 28.4 °F 75% 30.24 in 10.0 mi Calm Calm - N/A   Clear
8:35 PM 35.6 °F - 28.4 °F 75% 30.25 in 10.0 mi Calm Calm - N/A   Clear
8:55 PM 33.8 °F - 28.4 °F 81% 30.24 in 10.0 mi Calm Calm - N/A   Clear
9:15 PM 35.6 °F - 28.4 °F 75% 30.24 in 10.0 mi Calm Calm - N/A   Clear
9:35 PM 33.8 °F - 28.4 °F 81% 30.24 in 10.0 mi Calm Calm - N/A   Clear
9:55 PM 32.0 °F - 28.4 °F 87% 30.24 in 10.0 mi Calm Calm - N/A   Clear
10:15 PM 33.8 °F - 26.6 °F 75% 30.24 in 10.0 mi Calm Calm - N/A   Clear
10:35 PM 32.0 °F - 26.6 °F 80% 30.24 in 10.0 mi Calm Calm - N/A   Clear
10:55 PM 32.0 °F - 26.6 °F 80% 30.24 in 10.0 mi Calm Calm - N/A   Clear
11:15 PM 32.0 °F - 26.6 °F 80% 30.24 in 10.0 mi Calm Calm - N/A   Clear
11:35 PM 32.0 °F - 26.6 °F 80% 30.24 in 10.0 mi Calm Calm - N/A   Clear
11:55 PM 30.2 °F - 26.6 °F 86% 30.25 in 10.0 mi Calm Calm - N/A   Clear